LOCATION_NAME,SAMPLE COLLECTION TIME,DOSE EQUIVALENT RATE (nSv/h),GAMMA COUNT RATE R02 (CPM),GAMMA COUNT RATE R03 (CPM),GAMMA COUNT RATE R04 (CPM),GAMMA COUNT RATE R05 (CPM),GAMMA COUNT RATE R06 (CPM),GAMMA COUNT RATE R07 (CPM),GAMMA COUNT RATE R08 (CPM),GAMMA COUNT RATE R09 (CPM),STATUS
TN: MEMPHIS,01/01/2014 00:54:00,,2411.00,1345.00,411.00,217.00,129.00,155.00,102.00,42.00,APPROVED
TN: MEMPHIS,01/01/2014 01:54:00,,2412.00,1356.00,410.00,215.00,131.00,152.00,98.00,41.00,APPROVED
TN: MEMPHIS,01/01/2014 02:54:00,,2424.00,1362.00,411.00,219.00,130.00,154.00,98.00,40.00,APPROVED
TN: MEMPHIS,01/01/2014 03:55:00,,2450.00,1361.00,414.00,219.00,129.00,150.00,99.00,41.00,APPROVED
TN: MEMPHIS,01/01/2014 04:55:00,,2477.00,1348.00,407.00,211.00,129.00,150.00,95.00,42.00,APPROVED
TN: MEMPHIS,01/01/2014 05:55:00,,2468.00,1359.00,409.00,218.00,129.00,149.00,98.00,41.00,APPROVED
TN: MEMPHIS,01/01/2014 06:55:00,,2470.00,1370.00,412.00,210.00,131.00,153.00,96.00,42.00,APPROVED
TN: MEMPHIS,01/01/2014 07:55:00,,2493.00,1359.00,413.00,212.00,128.00,151.00,97.00,41.00,APPROVED
TN: MEMPHIS,01/01/2014 08:56:00,,2497.00,1355.00,408.00,208.00,128.00,152.00,93.00,41.00,APPROVED
TN: MEMPHIS,01/01/2014 09:56:00,,2531.00,1370.00,414.00,213.00,126.00,155.00,97.00,41.00,APPROVED
TN: MEMPHIS,01/01/2014 10:56:00,,2523.00,1379.00,416.00,217.00,133.00,152.00,99.00,41.00,APPROVED
TN: MEMPHIS,01/01/2014 11:56:00,,2493.00,1366.00,421.00,213.00,128.00,150.00,94.00,41.00,APPROVED
TN: MEMPHIS,01/01/2014 12:56:00,,2519.00,1391.00,418.00,215.00,130.00,156.00,93.00,41.00,APPROVED
TN: MEMPHIS,01/01/2014 13:57:00,,2572.00,1407.00,425.00,217.00,132.00,156.00,97.00,42.00,APPROVED
TN: MEMPHIS,01/01/2014 14:57:00,,2533.00,1404.00,427.00,217.00,132.00,155.00,97.00,39.00,APPROVED
TN: MEMPHIS,01/01/2014 15:57:00,,2474.00,1379.00,415.00,223.00,130.00,153.00,99.00,43.00,APPROVED
TN: MEMPHIS,01/01/2014 16:57:00,,2358.00,1334.00,407.00,218.00,132.00,154.00,99.00,41.00,APPROVED
TN: MEMPHIS,01/01/2014 17:57:00,,2221.00,1294.00,404.00,218.00,130.00,153.00,99.00,42.00,APPROVED
TN: MEMPHIS,01/01/2014 18:58:00,,2112.00,1253.00,395.00,216.00,132.00,149.00,100.00,41.00,APPROVED
TN: MEMPHIS,01/01/2014 19:58:00,,2035.00,1216.00,387.00,209.00,128.00,149.00,98.00,43.00,APPROVED
TN: MEMPHIS,01/01/2014 20:58:00,,1975.00,1175.00,387.00,208.00,128.00,149.00,100.00,44.00,APPROVED
TN: MEMPHIS,01/01/2014 21:58:00,,1949.00,1159.00,384.00,208.00,126.00,145.00,98.00,42.00,APPROVED
TN: MEMPHIS,01/01/2014 22:59:00,,2032.00,1208.00,383.00,209.00,127.00,145.00,98.00,42.00,APPROVED
TN: MEMPHIS,01/01/2014 23:59:00,,2112.00,1231.00,385.00,210.00,128.00,145.00,99.00,41.00,APPROVED
TN: MEMPHIS,01/02/2014 00:59:00,,2169.00,1277.00,395.00,216.00,131.00,147.00,99.00,42.00,APPROVED
TN: MEMPHIS,01/02/2014 01:59:00,,2231.00,1299.00,398.00,219.00,131.00,148.00,102.00,41.00,APPROVED
TN: MEMPHIS,01/02/2014 02:59:00,,2288.00,1339.00,404.00,220.00,133.00,154.00,103.00,44.00,APPROVED
TN: MEMPHIS,01/02/2014 04:00:00,,2315.00,1360.00,414.00,228.00,132.00,159.00,101.00,43.00,APPROVED
TN: MEMPHIS,01/02/2014 05:00:00,,2260.00,1327.00,405.00,223.00,130.00,152.00,101.00,44.00,APPROVED
TN: MEMPHIS,01/02/2014 06:00:00,,2260.00,1326.00,402.00,219.00,128.00,154.00,101.00,43.00,APPROVED
TN: MEMPHIS,01/02/2014 07:00:00,,2253.00,1312.00,406.00,222.00,133.00,152.00,103.00,42.00,APPROVED
TN: MEMPHIS,01/02/2014 08:00:00,,2259.00,1324.00,406.00,224.00,132.00,154.00,103.00,43.00,APPROVED
TN: MEMPHIS,01/02/2014 09:01:00,,2526.00,1564.00,467.00,270.00,151.00,177.00,116.00,48.00,APPROVED
TN: MEMPHIS,01/02/2014 10:01:00,,2902.00,1884.00,555.00,338.00,172.00,224.00,131.00,57.00,APPROVED
TN: MEMPHIS,01/02/2014 11:01:00,,2585.00,1610.00,490.00,285.00,153.00,192.00,117.00,50.00,APPROVED
TN: MEMPHIS,01/02/2014 12:01:00,,2685.00,1648.00,496.00,287.00,155.00,188.00,120.00,50.00,APPROVED
TN: MEMPHIS,01/02/2014 13:01:00,,2742.00,1640.00,489.00,275.00,152.00,193.00,113.00,48.00,APPROVED
TN: MEMPHIS,01/02/2014 14:02:00,,2732.00,1593.00,483.00,261.00,149.00,181.00,112.00,45.00,APPROVED
TN: MEMPHIS,01/02/2014 15:02:00,,2677.00,1529.00,465.00,252.00,142.00,177.00,108.00,43.00,APPROVED
TN: MEMPHIS,01/02/2014 16:02:00,,2655.00,1454.00,443.00,231.00,133.00,165.00,99.00,42.00,APPROVED
TN: MEMPHIS,01/02/2014 17:02:00,,2601.00,1395.00,423.00,220.00,131.00,157.00,92.00,41.00,APPROVED
TN: MEMPHIS,01/02/2014 18:02:00,,2504.00,1361.00,411.00,212.00,125.00,150.00,95.00,40.00,APPROVED
TN: MEMPHIS,01/02/2014 18:44:00,,2435.00,1337.00,401.00,210.00,127.00,149.00,94.00,40.00,APPROVED
TN: MEMPHIS,01/02/2014 19:51:00,,2384.00,1247.00,374.00,186.00,118.00,135.00,88.00,39.00,APPROVED
TN: MEMPHIS,01/02/2014 20:51:00,,2384.00,1268.00,379.00,193.00,122.00,140.00,89.00,40.00,APPROVED
TN: MEMPHIS,01/02/2014 21:52:00,,2405.00,1274.00,385.00,193.00,119.00,138.00,87.00,38.00,APPROVED
TN: MEMPHIS,01/02/2014 22:52:00,,2395.00,1255.00,384.00,190.00,121.00,137.00,89.00,37.00,APPROVED
TN: MEMPHIS,01/02/2014 23:52:00,,2423.00,1261.00,379.00,187.00,119.00,136.00,87.00,38.00,APPROVED
TN: MEMPHIS,01/03/2014 00:52:00,,2478.00,1247.00,379.00,188.00,118.00,135.00,86.00,38.00,APPROVED
TN: MEMPHIS,01/03/2014 01:53:00,,2536.00,1243.00,375.00,184.00,120.00,133.00,85.00,39.00,APPROVED
TN: MEMPHIS,01/03/2014 02:53:00,,2517.00,1249.00,374.00,184.00,118.00,137.00,82.00,38.00,APPROVED
TN: MEMPHIS,01/03/2014 03:53:00,,2496.00,1249.00,382.00,184.00,118.00,139.00,82.00,38.00,APPROVED
TN: MEMPHIS,01/03/2014 04:53:00,,2581.00,1243.00,380.00,183.00,118.00,135.00,81.00,38.00,APPROVED
TN: MEMPHIS,01/03/2014 05:53:00,,2663.00,1260.00,381.00,184.00,118.00,136.00,81.00,37.00,APPROVED
TN: MEMPHIS,01/03/2014 06:54:00,,2695.00,1247.00,379.00,185.00,114.00,137.00,82.00,38.00,APPROVED
TN: MEMPHIS,01/03/2014 07:54:00,,2634.00,1243.00,373.00,181.00,115.00,137.00,78.00,37.00,APPROVED
TN: MEMPHIS,01/03/2014 08:54:00,,2632.00,1237.00,377.00,183.00,115.00,137.00,75.00,38.00,APPROVED
TN: MEMPHIS,01/03/2014 09:54:00,,2632.00,1250.00,383.00,184.00,118.00,138.00,80.00,38.00,APPROVED
TN: MEMPHIS,01/03/2014 10:54:00,,2630.00,1261.00,381.00,185.00,119.00,140.00,81.00,38.00,APPROVED
TN: MEMPHIS,01/03/2014 11:55:00,,2634.00,1270.00,388.00,189.00,120.00,141.00,81.00,38.00,APPROVED
TN: MEMPHIS,01/03/2014 12:55:00,,2670.00,1295.00,388.00,190.00,118.00,140.00,83.00,39.00,APPROVED
TN: MEMPHIS,01/03/2014 13:55:00,,2659.00,1288.00,391.00,189.00,121.00,142.00,81.00,40.00,APPROVED
TN: MEMPHIS,01/03/2014 14:55:00,,2681.00,1275.00,388.00,189.00,120.00,141.00,80.00,38.00,APPROVED
TN: MEMPHIS,01/03/2014 15:55:00,,2679.00,1258.00,379.00,185.00,116.00,140.00,77.00,38.00,APPROVED
TN: MEMPHIS,01/03/2014 16:56:00,,2570.00,1240.00,377.00,184.00,115.00,136.00,82.00,37.00,APPROVED
TN: MEMPHIS,01/03/2014 17:56:00,,2425.00,1218.00,376.00,183.00,117.00,134.00,84.00,38.00,APPROVED
TN: MEMPHIS,01/03/2014 18:56:00,,2309.00,1213.00,370.00,186.00,118.00,133.00,88.00,38.00,APPROVED
TN: MEMPHIS,01/03/2014 19:56:00,,2298.00,1204.00,371.00,185.00,116.00,130.00,88.00,40.00,APPROVED
TN: MEMPHIS,01/03/2014 20:56:00,,2255.00,1206.00,370.00,186.00,115.00,133.00,85.00,37.00,APPROVED
TN: MEMPHIS,01/03/2014 21:57:00,,2242.00,1205.00,369.00,186.00,119.00,133.00,88.00,38.00,APPROVED
TN: MEMPHIS,01/03/2014 22:57:00,,2300.00,1205.00,379.00,187.00,118.00,134.00,88.00,39.00,APPROVED
TN: MEMPHIS,01/03/2014 23:57:00,,2346.00,1230.00,376.00,190.00,118.00,137.00,87.00,38.00,APPROVED
TN: MEMPHIS,01/04/2014 00:57:00,,2351.00,1244.00,375.00,185.00,116.00,134.00,85.00,38.00,APPROVED
TN: MEMPHIS,01/04/2014 01:58:00,,2417.00,1244.00,378.00,189.00,119.00,132.00,86.00,38.00,APPROVED
TN: MEMPHIS,01/04/2014 02:58:00,,2470.00,1256.00,379.00,188.00,118.00,138.00,86.00,37.00,APPROVED
TN: MEMPHIS,01/04/2014 03:58:00,,2507.00,1253.00,378.00,190.00,120.00,136.00,84.00,38.00,APPROVED
TN: MEMPHIS,01/04/2014 04:58:00,,2551.00,1257.00,380.00,188.00,119.00,135.00,87.00,38.00,APPROVED
TN: MEMPHIS,01/04/2014 05:58:00,,2545.00,1264.00,381.00,191.00,119.00,137.00,84.00,40.00,APPROVED
TN: MEMPHIS,01/04/2014 06:59:00,,2557.00,1260.00,381.00,189.00,118.00,137.00,84.00,38.00,APPROVED
TN: MEMPHIS,01/04/2014 07:59:00,,2561.00,1260.00,383.00,189.00,120.00,139.00,87.00,38.00,APPROVED
TN: MEMPHIS,01/04/2014 08:59:00,,2554.00,1263.00,385.00,189.00,119.00,138.00,83.00,37.00,APPROVED
TN: MEMPHIS,01/04/2014 09:59:00,,2566.00,1269.00,380.00,188.00,121.00,138.00,84.00,36.00,APPROVED
TN: MEMPHIS,01/04/2014 10:59:00,,2543.00,1262.00,382.00,188.00,120.00,137.00,87.00,37.00,APPROVED
TN: MEMPHIS,01/04/2014 12:00:00,,2512.00,1261.00,384.00,189.00,124.00,137.00,84.00,38.00,APPROVED
TN: MEMPHIS,01/04/2014 13:00:00,,2500.00,1268.00,379.00,191.00,116.00,135.00,86.00,38.00,APPROVED
TN: MEMPHIS,01/04/2014 14:00:00,,2507.00,1267.00,379.00,191.00,120.00,137.00,88.00,38.00,APPROVED
TN: MEMPHIS,01/04/2014 15:00:00,,2479.00,1271.00,382.00,191.00,118.00,135.00,87.00,38.00,APPROVED
TN: MEMPHIS,01/04/2014 16:00:00,,2394.00,1273.00,384.00,193.00,118.00,138.00,90.00,39.00,APPROVED
TN: MEMPHIS,01/04/2014 17:01:00,,2332.00,1258.00,382.00,196.00,122.00,139.00,91.00,39.00,APPROVED
TN: MEMPHIS,01/04/2014 18:01:00,,2284.00,1236.00,377.00,197.00,123.00,137.00,91.00,39.00,APPROVED
TN: MEMPHIS,01/04/2014 19:01:00,,2190.00,1227.00,376.00,198.00,119.00,137.00,94.00,38.00,APPROVED
TN: MEMPHIS,01/04/2014 20:01:00,,2127.00,1199.00,374.00,192.00,123.00,136.00,93.00,40.00,APPROVED
TN: MEMPHIS,01/04/2014 21:01:00,,2073.00,1174.00,369.00,190.00,122.00,135.00,92.00,39.00,APPROVED
TN: MEMPHIS,01/04/2014 22:02:00,,2077.00,1182.00,370.00,195.00,119.00,137.00,92.00,40.00,APPROVED
TN: MEMPHIS,01/04/2014 23:02:00,,2140.00,1207.00,372.00,194.00,121.00,134.00,92.00,38.00,APPROVED
TN: MEMPHIS,01/05/2014 00:02:00,,2157.00,1213.00,373.00,197.00,118.00,138.00,92.00,39.00,APPROVED
TN: MEMPHIS,01/05/2014 01:02:00,,2175.00,1229.00,378.00,196.00,122.00,139.00,93.00,40.00,APPROVED
TN: MEMPHIS,01/05/2014 02:03:00,,2200.00,1238.00,377.00,200.00,122.00,141.00,94.00,40.00,APPROVED
TN: MEMPHIS,01/05/2014 03:03:00,,2209.00,1247.00,382.00,199.00,120.00,143.00,93.00,40.00,APPROVED
TN: MEMPHIS,01/05/2014 04:03:00,,2214.00,1241.00,386.00,200.00,122.00,140.00,95.00,40.00,APPROVED
TN: MEMPHIS,01/05/2014 05:03:00,,2234.00,1246.00,380.00,199.00,123.00,139.00,93.00,39.00,APPROVED
TN: MEMPHIS,01/05/2014 06:03:00,,2236.00,1254.00,382.00,204.00,124.00,139.00,95.00,40.00,APPROVED
TN: MEMPHIS,01/05/2014 07:04:00,,2231.00,1261.00,383.00,206.00,126.00,142.00,97.00,41.00,APPROVED
TN: MEMPHIS,01/05/2014 08:04:00,,2220.00,1245.00,385.00,207.00,125.00,140.00,96.00,39.00,APPROVED
TN: MEMPHIS,01/05/2014 09:04:00,,2227.00,1255.00,382.00,203.00,122.00,143.00,95.00,40.00,APPROVED
TN: MEMPHIS,01/05/2014 10:04:00,,2245.00,1267.00,386.00,207.00,127.00,140.00,95.00,40.00,APPROVED
TN: MEMPHIS,01/05/2014 11:04:00,,2277.00,1289.00,395.00,210.00,128.00,144.00,99.00,41.00,APPROVED
TN: MEMPHIS,01/05/2014 12:05:00,,2245.00,1284.00,392.00,210.00,126.00,144.00,97.00,41.00,APPROVED
TN: MEMPHIS,01/05/2014 13:05:00,,2248.00,1290.00,395.00,207.00,126.00,145.00,99.00,41.00,APPROVED
TN: MEMPHIS,01/05/2014 14:05:00,,2308.00,1335.00,404.00,221.00,131.00,152.00,100.00,43.00,APPROVED
TN: MEMPHIS,01/05/2014 15:05:00,,2273.00,1319.00,402.00,217.00,131.00,154.00,100.00,43.00,APPROVED
TN: MEMPHIS,01/05/2014 16:06:00,,2480.00,1477.00,447.00,255.00,145.00,171.00,108.00,44.00,APPROVED
TN: MEMPHIS,01/05/2014 17:06:00,,2478.00,1499.00,449.00,260.00,147.00,173.00,110.00,48.00,APPROVED
TN: MEMPHIS,01/05/2014 18:06:00,,2538.00,1576.00,465.00,278.00,146.00,180.00,114.00,50.00,APPROVED
TN: MEMPHIS,01/05/2014 19:06:00,,2844.00,1824.00,525.00,326.00,167.00,211.00,127.00,54.00,APPROVED
TN: MEMPHIS,01/05/2014 20:06:00,,3586.00,2376.00,663.00,436.00,209.00,266.00,154.00,69.00,APPROVED
TN: MEMPHIS,01/05/2014 21:07:00,,3448.00,2249.00,649.00,417.00,202.00,265.00,153.00,63.00,APPROVED
TN: MEMPHIS,01/05/2014 22:07:00,,2884.00,1752.00,521.00,308.00,163.00,210.00,123.00,51.00,APPROVED
TN: MEMPHIS,01/05/2014 23:07:00,,2795.00,1553.00,476.00,255.00,145.00,179.00,107.00,42.00,APPROVED
TN: MEMPHIS,01/06/2014 00:07:00,,2711.00,1483.00,454.00,237.00,137.00,172.00,101.00,42.00,APPROVED
TN: MEMPHIS,01/06/2014 01:07:00,,2817.00,1451.00,443.00,224.00,130.00,163.00,95.00,42.00,APPROVED
TN: MEMPHIS,01/06/2014 02:08:00,,2818.00,1404.00,430.00,216.00,131.00,162.00,92.00,41.00,APPROVED
TN: MEMPHIS,01/06/2014 03:08:00,,2760.00,1345.00,414.00,206.00,127.00,152.00,87.00,39.00,APPROVED
TN: MEMPHIS,01/06/2014 04:08:00,,2684.00,1302.00,395.00,195.00,118.00,145.00,84.00,39.00,APPROVED
TN: MEMPHIS,01/06/2014 05:08:00,,2645.00,1269.00,385.00,189.00,120.00,143.00,80.00,39.00,APPROVED
TN: MEMPHIS,01/06/2014 06:08:00,,2595.00,1260.00,379.00,185.00,116.00,137.00,81.00,38.00,APPROVED
TN: MEMPHIS,01/06/2014 07:09:00,,2604.00,1258.00,385.00,185.00,117.00,139.00,83.00,38.00,APPROVED
TN: MEMPHIS,01/06/2014 08:09:00,,2641.00,1260.00,383.00,187.00,119.00,134.00,82.00,39.00,APPROVED
TN: MEMPHIS,01/06/2014 09:09:00,,2410.00,1289.00,389.00,189.00,121.00,137.00,84.00,39.00,APPROVED
TN: MEMPHIS,01/06/2014 10:09:00,,2567.00,1296.00,389.00,195.00,118.00,139.00,85.00,40.00,APPROVED
TN: MEMPHIS,01/06/2014 11:10:00,,2724.00,1295.00,391.00,191.00,117.00,138.00,87.00,38.00,APPROVED
TN: MEMPHIS,01/06/2014 12:10:00,,2781.00,1298.00,386.00,193.00,121.00,139.00,87.00,40.00,APPROVED
TN: MEMPHIS,01/06/2014 13:10:00,,2788.00,1299.00,385.00,193.00,122.00,133.00,90.00,37.00,APPROVED
TN: MEMPHIS,01/06/2014 14:10:00,,2872.00,1288.00,383.00,192.00,116.00,137.00,87.00,38.00,APPROVED
TN: MEMPHIS,01/06/2014 15:10:00,,2763.00,1279.00,386.00,195.00,118.00,136.00,86.00,37.00,APPROVED
TN: MEMPHIS,01/06/2014 16:11:00,,2542.00,1281.00,384.00,194.00,122.00,141.00,87.00,40.00,APPROVED
TN: MEMPHIS,01/06/2014 17:11:00,,2659.00,1262.00,381.00,190.00,116.00,138.00,82.00,37.00,APPROVED
TN: MEMPHIS,01/06/2014 18:11:00,,2628.00,1260.00,380.00,186.00,114.00,138.00,82.00,37.00,APPROVED
TN: MEMPHIS,01/06/2014 19:11:00,,2623.00,1266.00,386.00,186.00,117.00,139.00,80.00,39.00,APPROVED
TN: MEMPHIS,01/06/2014 19:57:00,,2635.00,1255.00,380.00,187.00,118.00,137.00,77.00,38.00,APPROVED
TN: MEMPHIS,01/06/2014 21:04:00,,2629.00,1214.00,369.00,179.00,117.00,131.00,75.00,37.00,APPROVED
TN: MEMPHIS,01/06/2014 22:04:00,,2640.00,1235.00,380.00,183.00,115.00,136.00,79.00,37.00,APPROVED
TN: MEMPHIS,01/06/2014 23:04:00,,2643.00,1245.00,377.00,181.00,118.00,137.00,82.00,38.00,APPROVED
TN: MEMPHIS,01/07/2014 00:05:00,,2397.00,1264.00,379.00,186.00,116.00,136.00,83.00,38.00,APPROVED
TN: MEMPHIS,01/07/2014 01:05:00,,2372.00,1266.00,381.00,190.00,118.00,137.00,84.00,37.00,APPROVED
TN: MEMPHIS,01/07/2014 02:05:00,,2372.00,1262.00,376.00,186.00,119.00,135.00,84.00,38.00,APPROVED
TN: MEMPHIS,01/07/2014 03:05:00,,2380.00,1271.00,377.00,190.00,120.00,136.00,85.00,36.00,APPROVED
TN: MEMPHIS,01/07/2014 04:05:00,,2419.00,1267.00,378.00,188.00,117.00,135.00,88.00,40.00,APPROVED
TN: MEMPHIS,01/07/2014 05:06:00,,2527.00,1266.00,376.00,190.00,117.00,133.00,85.00,37.00,APPROVED
TN: MEMPHIS,01/07/2014 06:06:00,,2668.00,1255.00,377.00,187.00,116.00,133.00,86.00,37.00,APPROVED
TN: MEMPHIS,01/07/2014 07:06:00,,2701.00,1264.00,375.00,186.00,117.00,134.00,86.00,37.00,APPROVED
TN: MEMPHIS,01/07/2014 08:06:00,,2782.00,1261.00,376.00,189.00,117.00,136.00,87.00,39.00,APPROVED
TN: MEMPHIS,01/07/2014 09:06:00,,2796.00,1271.00,377.00,187.00,118.00,131.00,87.00,38.00,APPROVED
TN: MEMPHIS,01/07/2014 10:07:00,,2892.00,1266.00,379.00,190.00,119.00,131.00,89.00,39.00,APPROVED
TN: MEMPHIS,01/07/2014 11:07:00,,2844.00,1273.00,381.00,193.00,118.00,135.00,87.00,38.00,APPROVED
TN: MEMPHIS,01/07/2014 12:07:00,,2778.00,1271.00,378.00,190.00,119.00,135.00,87.00,38.00,APPROVED
TN: MEMPHIS,01/07/2014 13:07:00,,2734.00,1277.00,380.00,191.00,120.00,135.00,86.00,38.00,APPROVED
TN: MEMPHIS,01/07/2014 14:08:00,,2690.00,1265.00,382.00,193.00,116.00,134.00,88.00,38.00,APPROVED
TN: MEMPHIS,01/07/2014 15:08:00,,2539.00,1262.00,378.00,190.00,119.00,133.00,85.00,36.00,APPROVED
TN: MEMPHIS,01/07/2014 16:08:00,,2577.00,1257.00,379.00,184.00,117.00,135.00,82.00,37.00,APPROVED
TN: MEMPHIS,01/07/2014 17:08:00,,2613.00,1237.00,375.00,184.00,117.00,140.00,78.00,39.00,APPROVED
TN: MEMPHIS,01/07/2014 18:08:00,,2651.00,1228.00,376.00,184.00,117.00,137.00,77.00,38.00,APPROVED
TN: MEMPHIS,01/07/2014 19:09:00,,2641.00,1244.00,379.00,184.00,117.00,138.00,81.00,39.00,APPROVED
TN: MEMPHIS,01/07/2014 20:09:00,,2531.00,1250.00,380.00,181.00,119.00,137.00,84.00,38.00,APPROVED
TN: MEMPHIS,01/07/2014 21:09:00,,2502.00,1250.00,382.00,186.00,119.00,137.00,84.00,39.00,APPROVED
TN: MEMPHIS,01/07/2014 22:09:00,,2525.00,1245.00,382.00,187.00,119.00,135.00,87.00,37.00,APPROVED
TN: MEMPHIS,01/07/2014 23:09:00,,2523.00,1253.00,385.00,187.00,120.00,138.00,87.00,39.00,APPROVED
TN: MEMPHIS,01/08/2014 00:10:00,,2559.00,1264.00,384.00,188.00,117.00,138.00,82.00,37.00,APPROVED
TN: MEMPHIS,01/08/2014 01:10:00,,2635.00,1258.00,383.00,187.00,117.00,141.00,82.00,38.00,APPROVED
TN: MEMPHIS,01/08/2014 02:10:00,,2662.00,1270.00,384.00,186.00,116.00,140.00,83.00,39.00,APPROVED
TN: MEMPHIS,01/08/2014 03:10:00,,2663.00,1263.00,384.00,190.00,120.00,140.00,79.00,36.00,APPROVED
TN: MEMPHIS,01/08/2014 04:10:00,,2678.00,1262.00,388.00,186.00,116.00,141.00,80.00,38.00,APPROVED
TN: MEMPHIS,01/08/2014 05:11:00,,2674.00,1276.00,381.00,185.00,119.00,142.00,80.00,38.00,APPROVED
TN: MEMPHIS,01/08/2014 06:11:00,,2685.00,1269.00,381.00,187.00,116.00,140.00,81.00,38.00,APPROVED
TN: MEMPHIS,01/08/2014 07:11:00,,2670.00,1253.00,382.00,184.00,118.00,139.00,82.00,38.00,APPROVED
TN: MEMPHIS,01/08/2014 08:11:00,,2672.00,1264.00,384.00,188.00,118.00,140.00,84.00,38.00,APPROVED
TN: MEMPHIS,01/08/2014 09:12:00,,2709.00,1275.00,383.00,185.00,120.00,137.00,82.00,38.00,APPROVED
TN: MEMPHIS,01/08/2014 10:12:00,,2726.00,1267.00,383.00,185.00,117.00,140.00,82.00,38.00,APPROVED
TN: MEMPHIS,01/08/2014 11:12:00,,2746.00,1269.00,395.00,188.00,117.00,140.00,81.00,38.00,APPROVED
TN: MEMPHIS,01/08/2014 12:12:00,,2742.00,1285.00,389.00,187.00,116.00,143.00,81.00,39.00,APPROVED
TN: MEMPHIS,01/08/2014 13:12:00,,2716.00,1284.00,387.00,188.00,117.00,141.00,82.00,37.00,APPROVED
TN: MEMPHIS,01/08/2014 14:13:00,,2654.00,1274.00,390.00,192.00,120.00,141.00,80.00,39.00,APPROVED
TN: MEMPHIS,01/08/2014 15:13:00,,2561.00,1283.00,392.00,192.00,117.00,141.00,85.00,37.00,APPROVED
TN: MEMPHIS,01/08/2014 16:13:00,,2514.00,1279.00,387.00,192.00,119.00,140.00,88.00,39.00,APPROVED
TN: MEMPHIS,01/08/2014 17:13:00,,2352.00,1261.00,386.00,197.00,120.00,141.00,89.00,38.00,APPROVED
TN: MEMPHIS,01/08/2014 18:13:00,,2266.00,1240.00,381.00,195.00,121.00,140.00,92.00,40.00,APPROVED
TN: MEMPHIS,01/08/2014 19:14:00,,2207.00,1234.00,381.00,197.00,121.00,140.00,93.00,39.00,APPROVED
TN: MEMPHIS,01/08/2014 20:14:00,,2193.00,1224.00,379.00,197.00,123.00,139.00,95.00,39.00,APPROVED
TN: MEMPHIS,01/08/2014 21:14:00,,2187.00,1233.00,379.00,198.00,123.00,139.00,94.00,39.00,APPROVED
TN: MEMPHIS,01/08/2014 22:14:00,,2219.00,1236.00,384.00,198.00,124.00,137.00,93.00,40.00,APPROVED
TN: MEMPHIS,01/08/2014 23:14:00,,2232.00,1243.00,385.00,200.00,122.00,140.00,93.00,40.00,APPROVED
TN: MEMPHIS,01/09/2014 00:15:00,,2291.00,1281.00,388.00,203.00,124.00,144.00,93.00,40.00,APPROVED
TN: MEMPHIS,01/09/2014 01:15:00,,2369.00,1326.00,404.00,217.00,128.00,152.00,97.00,41.00,APPROVED
TN: MEMPHIS,01/09/2014 02:15:00,,2457.00,1380.00,423.00,223.00,131.00,157.00,100.00,42.00,APPROVED
TN: MEMPHIS,01/09/2014 03:15:00,,2443.00,1372.00,423.00,222.00,133.00,157.00,99.00,43.00,APPROVED
TN: MEMPHIS,01/09/2014 04:16:00,,2364.00,1319.00,405.00,208.00,129.00,147.00,95.00,40.00,APPROVED
TN: MEMPHIS,01/09/2014 05:16:00,,2338.00,1285.00,392.00,205.00,124.00,146.00,94.00,40.00,APPROVED
TN: MEMPHIS,01/09/2014 06:16:00,,2477.00,1413.00,428.00,221.00,132.00,155.00,99.00,41.00,APPROVED
TN: MEMPHIS,01/09/2014 07:16:00,,2622.00,1494.00,451.00,238.00,139.00,166.00,104.00,43.00,APPROVED
TN: MEMPHIS,01/09/2014 08:16:00,,2680.00,1529.00,464.00,244.00,142.00,171.00,107.00,42.00,APPROVED
TN: MEMPHIS,01/09/2014 09:17:00,,2542.00,1408.00,433.00,225.00,131.00,160.00,99.00,41.00,APPROVED
TN: MEMPHIS,01/09/2014 10:17:00,,2493.00,1376.00,414.00,213.00,130.00,153.00,97.00,41.00,APPROVED
TN: MEMPHIS,01/09/2014 11:17:00,,2412.00,1300.00,398.00,200.00,122.00,144.00,92.00,39.00,APPROVED
TN: MEMPHIS,01/09/2014 12:17:00,,2433.00,1309.00,396.00,201.00,122.00,143.00,91.00,40.00,APPROVED
TN: MEMPHIS,01/09/2014 13:17:00,,2553.00,1391.00,426.00,214.00,130.00,154.00,93.00,41.00,APPROVED
TN: MEMPHIS,01/09/2014 14:18:00,,2713.00,1521.00,462.00,239.00,139.00,172.00,104.00,43.00,APPROVED
TN: MEMPHIS,01/09/2014 15:18:00,,2798.00,1620.00,485.00,258.00,146.00,178.00,106.00,42.00,APPROVED
TN: MEMPHIS,01/09/2014 16:18:00,,2703.00,1531.00,467.00,246.00,139.00,170.00,103.00,42.00,APPROVED
TN: MEMPHIS,01/09/2014 17:18:00,,2630.00,1472.00,449.00,231.00,135.00,162.00,101.00,42.00,APPROVED
TN: MEMPHIS,01/09/2014 18:18:00,,2551.00,1400.00,426.00,220.00,130.00,154.00,97.00,41.00,APPROVED
TN: MEMPHIS,01/09/2014 19:19:00,,2462.00,1323.00,405.00,208.00,128.00,147.00,94.00,41.00,APPROVED
TN: MEMPHIS,01/09/2014 20:19:00,,2335.00,1294.00,391.00,202.00,122.00,141.00,91.00,39.00,APPROVED
TN: MEMPHIS,01/09/2014 21:33:00,,2343.00,1243.00,380.00,189.00,119.00,137.00,91.00,40.00,APPROVED
TN: MEMPHIS,01/09/2014 22:33:00,,2313.00,1238.00,377.00,194.00,119.00,132.00,91.00,41.00,APPROVED
TN: MEMPHIS,01/09/2014 23:33:00,,2279.00,1234.00,382.00,194.00,120.00,136.00,91.00,39.00,APPROVED
TN: MEMPHIS,01/10/2014 00:33:00,,2279.00,1250.00,376.00,197.00,122.00,138.00,92.00,39.00,APPROVED
TN: MEMPHIS,01/10/2014 01:33:00,,2217.00,1237.00,378.00,198.00,121.00,137.00,93.00,39.00,APPROVED
TN: MEMPHIS,01/10/2014 02:34:00,,2217.00,1235.00,381.00,198.00,121.00,139.00,94.00,39.00,APPROVED
TN: MEMPHIS,01/10/2014 03:34:00,,2230.00,1241.00,381.00,198.00,121.00,137.00,92.00,39.00,APPROVED
TN: MEMPHIS,01/10/2014 04:34:00,,2238.00,1247.00,379.00,197.00,121.00,140.00,94.00,39.00,APPROVED
TN: MEMPHIS,01/10/2014 05:34:00,,2210.00,1240.00,375.00,199.00,120.00,140.00,94.00,37.00,APPROVED
TN: MEMPHIS,01/10/2014 06:34:00,,2197.00,1226.00,381.00,199.00,122.00,139.00,94.00,40.00,APPROVED
TN: MEMPHIS,01/10/2014 07:35:00,,2168.00,1216.00,376.00,198.00,119.00,138.00,92.00,40.00,APPROVED
TN: MEMPHIS,01/10/2014 08:35:00,,2168.00,1213.00,372.00,196.00,120.00,138.00,93.00,39.00,APPROVED
TN: MEMPHIS,01/10/2014 09:35:00,,2160.00,1211.00,374.00,196.00,119.00,134.00,93.00,40.00,APPROVED
TN: MEMPHIS,01/10/2014 10:35:00,,2188.00,1220.00,374.00,195.00,118.00,138.00,92.00,39.00,APPROVED
TN: MEMPHIS,01/10/2014 11:35:00,,2205.00,1222.00,372.00,195.00,118.00,136.00,92.00,39.00,APPROVED
TN: MEMPHIS,01/10/2014 12:36:00,,2214.00,1238.00,374.00,195.00,122.00,137.00,93.00,41.00,APPROVED
TN: MEMPHIS,01/10/2014 13:36:00,,2330.00,1345.00,403.00,216.00,129.00,150.00,97.00,41.00,APPROVED
TN: MEMPHIS,01/10/2014 14:36:00,,2346.00,1357.00,411.00,229.00,132.00,156.00,99.00,42.00,APPROVED
TN: MEMPHIS,01/10/2014 15:36:00,,2219.00,1259.00,388.00,211.00,122.00,145.00,94.00,41.00,APPROVED
TN: MEMPHIS,01/10/2014 16:37:00,,2147.00,1210.00,376.00,202.00,120.00,141.00,94.00,40.00,APPROVED
TN: MEMPHIS,01/10/2014 17:37:00,,2124.00,1203.00,373.00,196.00,119.00,136.00,92.00,38.00,APPROVED
TN: MEMPHIS,01/10/2014 18:37:00,,2087.00,1189.00,370.00,196.00,123.00,136.00,92.00,39.00,APPROVED
TN: MEMPHIS,01/10/2014 19:37:00,,2055.00,1174.00,368.00,195.00,120.00,138.00,94.00,41.00,APPROVED
TN: MEMPHIS,01/10/2014 20:37:00,,2025.00,1169.00,368.00,199.00,119.00,139.00,96.00,39.00,APPROVED
TN: MEMPHIS,01/10/2014 21:38:00,,1987.00,1164.00,368.00,200.00,122.00,143.00,95.00,40.00,APPROVED
TN: MEMPHIS,01/10/2014 22:38:00,,2005.00,1167.00,369.00,201.00,124.00,139.00,94.00,40.00,APPROVED
TN: MEMPHIS,01/10/2014 23:38:00,,2069.00,1191.00,372.00,205.00,120.00,141.00,96.00,42.00,APPROVED
TN: MEMPHIS,01/11/2014 00:38:00,,2129.00,1240.00,383.00,204.00,121.00,145.00,99.00,41.00,APPROVED
TN: MEMPHIS,01/11/2014 01:38:00,,2141.00,1248.00,384.00,211.00,124.00,144.00,97.00,42.00,APPROVED